User: anonymous   Login
Location: Albany
(35.0000°S, 118.0000°E)
Time: 20:13:38
(UTC-05:00)
Language:

Transit 2A - Orbit

View from above orbital plane
View from above orbital plane
View from above satellite
View from above satellite

Ground track
Ground track

The orbit data is extracted from the following two-line orbital elements,

1 00045U 60007A   14327.15259521  .00000595  00000-0  17622-3 0  2903
2 00045 066.6956 337.9683 0258222 353.7709 070.8192 14.33124079831275
Epoch (UTC): 23 November 2014 03:39:44
Eccentricity: 0.0258222
inclination: 66.6956°
perigee height: 596 km
apogee height: 966 km
right ascension of ascending node: 337.9683°
argument of perigee: 353.7709°
revolutions per day: 14.33124079
mean anomaly at epoch: 70.8192°
orbit number at epoch: 83127

The dashed part of the orbit path shows where the satellite is in the earth's shadow,  

DLR